Showing default

COSMOS 2561, 54109

Orbit data source: Space-Track

COSMOS 2561, 54109 is a payload satellite owned by MO RF (CIS) in SSO that was launched on Fri, 21 Oct 2022 UTC via a SOYUZ-2-1V launch vehicle from the Plesetsk Missile And Space Complex (PKMTR). Payloads include a variety of satellites, spacecraft, and rockets equipped with specific instruments for various scientific and technological missions. These include communications satellites like Starlink; space stations such as the ISS; scientific satellites like the Hubble; Earth observation satellites from companies like Planet Labs, Umbra, and HawkEye 360; GPS; miniature CubeSats for education and research; and military/defense satellites.

Loading next visibility...
COSMOS 2561 details
Identifier
54109, 2022-137A
Orbit
SSO
Last TLE update11 hours ago
Origin
Flag of CISMO RF (CIS)
ManufacturerVNIIEM
MissionOperational Defense Technology
Bus & MotorEMKA, Unknown motor
Mass~500 kg wet, 500 kg dry
Launch date (UTC)
2022-10-21 (2 years ago)
Launch vehicle
SOYUZ-2-1V
Launch site
Plesetsk Missile And Space Complex (PKMTR)
Object type
Payload
Rocket body
Debris
Shape & HBRCyl + 2 Pan, 3 m
Radar Cross Section3.727 m², Large (>1 m²)

Expand to show TLE details & history

TLE from 11 hours ago
0 COSMOS 2561
1 54109U 22137A   25014.74671270  .00011758  00000-0  32525-3 0  9992
2 54109  96.9931  90.9480 0014361 120.6848 239.5815 15.37047407126338
Epoch: 2025-01-14T17:55Z
Definitive object data (Epoch: 2025-01-14T17:55:15.977Z)
Latitude0.00001°
Longitude67.68245°
Altitude462.951 km
Speed7.632 km/s
True Right ascension06h 03m 47s
True Declination0° 00' 00"
Sunlit
Object was in full shadow at TLE epoch
Visualization TLE readout
Latitude25.00024°
Longitude64.85956°
Altitude458.665 km
Speed7.639 km/s
Apparent Right ascension06h 48m 34s
Apparent Declination-41° 32' 11"
Sunlit
Object is in full shadow
Visualization observer readout
Local Sidereal Time05:37:09
Azimuth166.632° S
Elevation6.949°
Doppler factor1
Orbital elements
Apogee altitude461.58 km
Perigee altitude441.963 km
Semi-major axis6,829.909 km
Eccentricity0.0014361
Inclination96.9931°
RAAN90.948°
Arg. of periapsis120.6848°
True anomaly239.43972°
Mean anomaly239.5815°
Eccentric anomaly239.5106°
Mean motion3.84522 °/min
BSTAR0.00032525
Orbital period93.62 mins
Loading maneuver chart data...
Loading historical data...
Loading historical data...
Loading historical data...
Loading historical data...
Loading historical data...
Loading historical data...
Loading historical data...
Other satellites on launch #137 in the year 2022 (2022-10-21 UTC)

COSMOS 2561 Visibility forecast

Observer location: undefined°, undefined

Span
Click to sort rows by Start time (UTC) header in descending order
Start Az.
Max El. time (UTC)
Max El. Az.
Max El.
End time (UTC)
End Az.
6 mins2025-01-15 04:59:01.464Z166.611° S2025-01-15 05:02:01.464Z26.481° NE44.92°2025-01-15 05:05:01.464Z349.299° N
4 mins2025-01-15 17:56:01.464Z359.983° N2025-01-15 17:58:01.464Z241.356° WSW41.39°2025-01-15 18:00:01.464Z202.702° SW
4 mins2025-01-16 04:27:01.464Z115.848° SE2025-01-16 04:29:01.464Z57.524° ENE24.588°2025-01-16 04:31:01.464Z16.665° NNE
|